HP3ICC-14 Weather Reports


time (UTC)temp
C
wind
direction
speed
KPH
gust
KPH
rain 1hr
cm
rain 24hr
cm
rain mn
cm
humidity
%
barometer
mb
20260503032214 24 47 3.2 4.8 0.00 0.00 0.00 86 1012.0
20260503032113 24 47 3.2 4.8 0.00 0.00 0.00 86 1012.0
20260503030213 21 311 1.6 4.8 0.00 0.00 0.00 87 1012.0
20260503030113 21 311 1.6 4.8 0.00 0.00 0.00 87 1012.0
20260503024212 21 311 1.6 4.8 0.00 0.00 0.00 87 1012.0
20260503024112 21 311 1.6 4.8 0.00 0.00 0.00 87 1012.0
20260503022212 22 311 1.6 4.8 0.00 0.00 0.00 87 1012.0
20260503022112 22 311 1.6 4.8 0.00 0.00 0.00 87 1012.0
20260503020212 22 311 1.6 4.8 0.00 0.00 0.00 87 1012.0
20260503020111 22 311 1.6 4.8 0.00 0.00 0.00 87 1012.0
20260503014211 23 311 1.6 4.8 0.00 0.00 0.00 87 1012.0
20260503014111 23 311 1.6 4.8 0.00 0.00 0.00 87 1012.0
20260503012210 23 311 3.2 4.8 0.00 0.00 0.00 87 1011.0
20260503012110 23 311 3.2 4.8 0.00 0.00 0.00 87 1011.0
20260503010210 21 262 4.8 8.0 0.00 0.00 0.00 90 1011.0
20260503010109 21 262 4.8 8.0 0.00 0.00 0.00 90 1011.0
20260503004210 22 262 4.8 8.0 0.00 0.00 0.00 90 1011.0
20260503004109 22 262 4.8 8.0 0.00 0.00 0.00 90 1011.0
20260503002209 22 262 4.8 8.0 0.00 0.00 0.00 90 1010.0
20260503002108 22 262 4.8 8.0 0.00 0.00 0.00 90 1010.0
20260503000208 23 262 4.8 8.0 0.00 0.00 0.00 90 1010.0
20260503000108 23 262 4.8 8.0 0.00 0.00 0.00 90 1010.0
20260502234207 23 262 4.8 8.0 0.00 0.00 0.00 90 1010.0
20260502234107 23 262 4.8 8.0 0.00 0.00 0.00 90 1010.0
20260502232207 24 262 4.8 8.0 0.00 0.00 0.00 90 1010.0
20260502232106 24 262 4.8 8.0 0.00 0.00 0.00 90 1010.0
20260502230206 25 262 4.8 8.0 0.00 0.00 0.00 90 1010.0
20260502230106 25 262 4.8 8.0 0.00 0.00 0.00 90 1010.0
20260502224206 21 146 8.0 8.0 0.00 0.00 0.00 82 1010.0
20260502224106 21 146 8.0 8.0 0.00 0.00 0.00 82 1010.0
20260502222205 21 146 8.0 8.0 0.00 0.00 0.00 82 1009.0
20260502222105 21 146 8.0 8.0 0.00 0.00 0.00 82 1009.0
20260502220205 22 146 8.0 8.0 0.00 0.00 0.00 82 1009.0
20260502220104 22 146 8.0 8.0 0.00 0.00 0.00 82 1009.0
20260502214204 22 146 8.0 8.0 0.00 0.00 0.00 82 1009.0
20260502214104 22 146 8.0 8.0 0.00 0.00 0.00 82 1009.0
20260502212203 23 146 8.0 8.0 0.05 0.00 0.00 82 1008.0
20260502212103 23 146 8.0 8.0 0.05 0.00 0.00 82 1008.0
20260502210203 23 146 8.0 8.0 0.13 0.00 0.00 82 1008.0
20260502204202 24 146 8.0 8.0 0.13 0.00 0.00 82 1008.0
20260502204102 24 146 8.0 8.0 0.13 0.00 0.00 82 1008.0
20260502202202 25 146 8.0 8.0 0.18 0.00 0.00 82 1008.0
20260502202101 25 146 8.0 8.0 0.18 0.00 0.00 82 1008.0
20260502200201 25 146 8.0 8.0 0.23 0.00 0.00 82 1008.0
20260502200101 25 146 8.0 8.0 0.23 0.00 0.00 82 1008.0
20260502194200 26 146 8.0 8.0 0.18 0.00 0.00 82 1008.0
20260502194100 26 146 8.0 8.0 0.18 0.00 0.00 82 1008.0
20260502192200 26 146 8.0 8.0 0.18 0.00 0.00 82 1009.0
20260502192100 26 146 8.0 8.0 0.18 0.00 0.00 82 1009.0
20260502190159 27 146 8.0 8.0 0.18 0.00 0.00 82 1009.0
20260502190059 27 146 8.0 8.0 0.18 0.00 0.00 82 1009.0
20260502184159 27 146 9.7 9.7 0.18 0.00 0.00 82 1009.0
20260502184059 27 146 9.7 9.7 0.18 0.00 0.00 82 1009.0
20260502182158 27 153 6.4 4.8 0.25 0.00 0.00 78 1009.0
20260502182058 27 153 6.4 4.8 0.25 0.00 0.00 78 1009.0
20260502180158 28 153 6.4 4.8 0.00 0.00 0.00 78 1009.0
20260502170156 28 253 1.6 6.4 0.00 0.00 0.00 73 1009.0
20260502164156 29 253 1.6 6.4 0.03 0.00 0.00 73 1009.0
20260502164056 29 253 1.6 6.4 0.03 0.00 0.00 73 1009.0
20260502162155 30 253 1.6 6.4 0.00 0.00 0.00 73 1010.0
20260502162055 30 253 1.6 6.4 0.00 0.00 0.00 73 1010.0
20260502160155 30 253 1.6 6.4 0.00 0.00 0.00 73 1010.0
20260502152154 27 278 4.8 4.8 0.00 0.00 0.00 76 1010.0
20260502152054 27 278 4.8 4.8 0.00 0.00 0.00 76 1010.0
20260502150153 28 278 4.8 4.8 0.00 0.00 0.00 76 1010.0
20260502130151 24 256 4.8 4.8 0.00 0.00 0.00 88 1010.0
20260502122150 25 256 4.8 4.8 0.00 0.00 0.00 88 1009.0
20260502122049 25 256 4.8 4.8 0.00 0.00 0.00 88 1009.0
20260502120149 26 256 4.8 4.8 0.00 0.00 0.00 88 1009.0
20260502114149 22 253 6.4 8.0 0.00 0.00 0.00 86 1009.0
20260502114049 22 253 6.4 8.0 0.00 0.00 0.00 86 1009.0
20260502112148 22 253 6.4 8.0 0.00 0.00 0.00 86 1009.0
20260502112048 22 253 6.4 8.0 0.00 0.00 0.00 86 1009.0
20260502110148 23 253 6.4 8.0 0.00 0.00 0.00 86 1009.0
20260502110048 23 253 6.4 8.0 0.00 0.00 0.00 86 1009.0
20260502104147 23 253 6.4 8.0 0.00 0.00 0.00 86 1009.0
20260502104047 23 253 6.4 8.0 0.00 0.00 0.00 86 1009.0
20260502102147 24 253 6.4 8.0 0.00 0.00 0.00 86 1008.0
20260502102047 24 253 6.4 8.0 0.00 0.00 0.00 86 1008.0
20260502100146 25 253 6.4 8.0 0.00 0.00 0.00 86 1008.0
20260502090145 21 244 6.4 11.3 0.00 0.00 0.00 86 1008.0
20260502070142 25 244 6.4 11.3 0.00 0.00 0.00 86 1009.0
20260502070042 25 244 6.4 11.3 0.00 0.00 0.00 86 1009.0
20260502064142 25 244 6.4 11.3 0.00 0.00 0.00 86 1009.0
20260502064041 25 244 6.4 11.3 0.00 0.00 0.00 86 1009.0
20260502062141 26 244 6.4 11.3 0.00 0.00 0.00 86 1009.0
20260502062041 26 244 6.4 11.3 0.00 0.00 0.00 86 1009.0
20260502060141 21 253 1.6 1.6 0.00 0.00 0.00 85 1009.0
20260502060040 21 253 1.6 1.6 0.00 0.00 0.00 85 1009.0
20260502054140 22 253 1.6 1.6 0.00 0.00 0.00 85 1009.0
20260502054040 22 253 1.6 1.6 0.00 0.00 0.00 85 1009.0
20260502052140 22 253 1.6 1.6 0.00 0.00 0.00 85 1010.0
20260502052040 22 253 1.6 1.6 0.00 0.00 0.00 85 1010.0
20260502050139 23 253 1.6 1.6 0.00 0.00 0.00 85 1010.0
20260502050039 23 253 1.6 1.6 0.00 0.00 0.00 85 1010.0
20260502044139 23 253 1.6 1.6 0.00 0.00 0.00 85 1010.0
20260502044039 23 253 1.6 1.6 0.00 0.00 0.00 85 1010.0
20260502042138 24 253 1.6 1.6 0.00 0.00 0.00 85 1010.0
20260502042038 24 253 1.6 1.6 0.00 0.00 0.00 85 1010.0
20260502040138 25 253 1.6 1.6 0.00 0.00 0.00 85 1010.0
20260502040038 25 253 1.6 1.6 0.00 0.00 0.00 85 1010.0
20260502034137 25 253 1.6 1.6 0.00 0.00 0.00 85 1010.0
20260502034037 25 253 1.6 1.6 0.00 0.00 0.00 85 1010.0